Location: Azul
(36.7830°S, 59.8500°W)
Time: 23:30:20
(UTC-03:00)

STARS - Pass Details

Date: 28 October 2021
Orbit: 623 x 638 km, 98.2° (Epoch: 30 November)

Event Time Altitude Azimuth Distance (km) Brightness Sun altitude
Exits shadow 23:06:20 20° 232° (SW) 1,458 ? -34.8°
Drops below altitude 10° 23:08:07 10° 215° (SW) 2,028 ? -35.0°
Sets 23:10:34 0° 204° (SSW) 2,943 ? -35.2°
